Vertical_Velocity
3 3 -1 0 1 -2 -3 -3 -1 0 2 -1 -3 -0 -1 -1 -1 0 1 0 1 -2 -1 0 -0 0 -0 -1 1 -4 0 8 -0 2 2 -5 2 -5 3 4 -1 -1 -0 -1 4
-1 1 3 -1 -2 -1 -1 -1 -1 1 2 -2 -4 -4 -0 1 -0 -3 4 -2 -0 -1 -2 -1 -1 -2 1 0 2 -2 5 2 -0 -5 3 -2 0 -6 -2 5 -3 -2 -3 -3 -2
-1 -1 1 1 -2 -5 -2 -2 -1 1 1 -2 -2 -4 -1 -0 -1 -1 0 -0 -2 -2 -0 -1 -1 -1 -0 -2 -3 1 4 -5 3 -2 4 -4 1 -7 -8 8 -7 -5 -2 0 -1
0 -1 2 0 0 -5 -2 -1 -4 -0 2 -1 -1 -3 -2 2 -7 3 -0 2 -1 -1 -1 -1 -2 -2 -2 -0 -1 -1 -2 -3 6 -1 -1 1 1 -1 -2 -0 -7 -2 -2 1 3
1 -6 -1 3 1 -12 0 -2 -2 -1 1 1 -3 -1 1 0 -10 5 -1 -0 1 -0 -2 -0 -1 -3 2 2 -2 0 -5 -3 0 0 0 -3 2 -7 6 -4 -1 -8 -2 -1 1
3 -1 1 -1 1 -7 -4 -2 -3 1 -2 0 -3 -1 2 -4 2 1 2 -0 -0 -1 -1 -1 -1 -0 0 -1 2 0 0 -3 -2 -1 3 4 2 5 -1 1 -1 4 -2 1 2
4 -2 3 -1 -1 -4 -4 -3 0 -2 1 1 -2 -2 4 -9 1 -0 -0 3 -0 -2 -1 -3 0 -3 1 -0 2 -2 -1 -3 -1 -2 -5 -2 -1 7 -1 0 -5 3 2 1 2
4 1 4 -1 -2 -5 -7 -0 -1 -6 0 -0 -0 -2 5 -4 0 1 4 -3 -1 1 -2 -0 2 -3 -3 1 -3 2 1 -1 -4 -6 -6 0 9 0 -9 0 -2 -0 2 -0 1
-1 1 -1 2 -5 -1 -1 -8 -2 -3 -2 0 -0 -2 5 -1 3 2 1 -1 -1 -0 -3 -0 1 -4 1 1 -3 3 0 -3 -4 -5 -7 -8 4 5 -10 -2 2 5 -0 0 -7
-0 -3 1 6 -4 -1 -5 -1 1 -1 -1 0 -1 -1 -2 -4 1 -0 1 -2 1 -0 -1 0 0 -0 0 -2 4 -7 -3 3 0 -5 -4 -5 5 9 -9 -5 -0 -0 1 0 3
0 1 4 -6 -2 -1 -1 -2 0 -5 1 2 2 2 -2 -1 0 3 2 -1 -1 -0 1 -3 -1 7 -10 -5 -0 0 -1 -2 4 -3 -11 -3 1 8 1 -3 3 3 -1 -0 -2
1 1 0 -3 -0 -3 -0 4 0 -1 -2 0 -2 6 -2 -4 6 1 -1 3 0 -3 -3 -0 3 -4 -0 -1 -3 -1 -1 3 5 -3 -17 1 8 6 9 -4 3 2 -1 -1 -3
2 -1 -2 -2 -3 0 5 2 -2 -3 -8 10 2 9 -7 -10 5 5 1 -1 3 -1 -1 -4 1 -2 0 -3 -3 -1 -0 3 -6 -1 -4 -9 5 3 6 7 6 2 1 -0 -0
2 -0 -5 2 -9 11 8 -4 -5 -1 -18 19 -1 -1 3 -5 4 1 -4 2 5 4 -4 -4 1 5 -3 3 -5 -6 -3 -2 -1 -11 -1 -4 -27 4 4 10 6 3 1 1 2
-0 -2 0 4 3 1 18 -10 -3 9 -32 -5 -1 4 2 -8 11 3 -3 -1 7 2 -5 3 3 -2 -2 5 -7 3 1 -6 -5 -4 -13 8 -33 14 12 13 4 4 3 5 0
7 2 3 -6 14 6 -5 3 10 7 -26 -8 1 1 2 0 1 4 -1 -3 3 -2 -1 3 2 1 1 -1 -0 -3 -3 -0 -5 -4 -23 6 -11 11 6 5 7 4 4 4 -2
13 1 -3 2 14 -2 -1 8 16 -32 -4 -6 5 3 -2 2 4 3 2 -1 -3 -8 6 -2 -1 1 3 -0 1 -0 1 -6 -11 -8 -7 -6 -15 20 -2 2 3 -3 -1 -4 6
2 5 5 3 5 -6 24 13 -16 -0 2 -0 6 6 0 -2 2 3 0 0 1 -2 -0 -5 -1 5 8 4 -3 -4 -3 3 -12 -8 -5 -4 -25 -4 3 -2 -1 -0 0 -4 -2
16 5 3 23 6 5 3 -7 -20 15 5 -7 -1 -1 0 3 1 1 6 -2 -1 -0 5 -1 -2 2 0 1 2 0 -3 -1 -7 -3 -17 8 -4 -6 7 -2 -3 -7 -4 -6 -2
8 9 7 11 6 2 7 -18 -6 0 7 -2 -2 1 2 5 -1 1 4 1 -0 1 -1 -9 -6 1 -0 1 -2 4 -4 -1 3 -9 -14 -7 -19 -3 -1 -0 -1 -4 -6 -5 -6
10 12 14 13 11 31 -25 -6 -3 14 3 1 2 -2 1 -1 2 -4 -12 -3 5 2 -3 2 3 5 3 2 4 -4 1 2 -3 0 -2 -18 -3 10 -4 -3 -7 -9 -7 -7 -2
9 3 11 28 -4 5 -20 2 11 9 0 2 5 5 3 3 6 2 -3 4 1 -0 0 2 -4 -4 0 1 1 2 3 3 -0 1 2 -2 -41 -5 -4 -8 -11 -7 -7 -6 -4
8 5 6 16 -22 -19 -0 6 -4 7 5 -2 3 -0 4 2 4 4 6 -2 -0 -1 -4 0 -14 2 -2 -1 3 1 4 6 2 0 6 -6 -44 11 -4 -6 -5 -19 1 -1 -6
41 5 13 14 -3 -8 -1 -2 -0 8 5 -1 -5 0 2 4 5 1 1 -2 3 1 -2 -5 3 3 1 3 7 0 7 4 2 0 -5 17 -46 47 -10 -18 -3 2 -2 -5 3
23 -19 4 -16 -19 2 9 3 6 -1 1 6 -7 -4 1 4 7 -3 -3 -2 -1 -3 -3 -9 -2 4 6 3 -1 2 -1 0 0 2 -16 9 -18 -7 5 -11 -12 -9 5 6 -3
-14 -8 -2 6 -3 7 2 -3 -0 -2 -2 -2 -0 9 7 3 13 3 4 3 1 -2 -3 -5 -10 2 2 0 -3 0 1 5 2 9 -6 -11 -1 -9 0 -7 -13 -0 7 -2 -5
15 19 10 5 6 7 -2 16 6 18 2 4 3 6 10 -0 -1 3 4 2 4 1 3 4 10 9 -4 1 -1 -7 2 9 -4 -0 -6 1 6 2 -5 -10 -12 2 8 -3 -6
Height
5810 5812 5815 5817 5819 5819 5821 5822 5823 5824 5824 5825 5826 5826 5826 5824 5823 5823 5825 5824 5825 5826 5827 5828 5830 5831 5833 5835 5836 5837 5840 5842 5842 5840 5839 5840 5845 5843 5844 5843 5843 5843 5844 5844 5843
5802 5805 5807 5809 5811 5812 5814 5816 5817 5817 5817 5819 5820 5820 5820 5820 5818 5818 5819 5819 5820 5822 5823 5824 5825 5827 5828 5830 5831 5831 5833 5835 5835 5835 5836 5837 5839 5839 5839 5837 5838 5836 5838 5837 5837
5792 5797 5799 5801 5803 5805 5806 5808 5810 5810 5810 5812 5813 5814 5815 5815 5813 5812 5814 5814 5814 5817 5819 5819 5820 5821 5822 5823 5825 5826 5828 5829 5830 5830 5832 5833 5833 5832 5832 5833 5832 5831 5831 5830 5831
5783 5786 5790 5793 5795 5796 5798 5800 5802 5803 5802 5804 5806 5808 5809 5809 5808 5807 5809 5810 5810 5811 5812 5813 5814 5816 5818 5818 5820 5822 5824 5823 5826 5827 5827 5826 5828 5828 5826 5828 5826 5827 5826 5825 5825
5772 5776 5780 5785 5786 5787 5790 5791 5792 5794 5795 5796 5799 5801 5802 5803 5800 5801 5803 5805 5805 5806 5806 5808 5809 5810 5812 5815 5816 5817 5819 5819 5821 5822 5822 5821 5822 5821 5823 5822 5824 5822 5820 5820 5821
5761 5764 5769 5774 5775 5776 5780 5782 5782 5785 5787 5788 5790 5793 5795 5797 5793 5795 5798 5798 5800 5801 5801 5802 5803 5805 5808 5809 5810 5813 5814 5814 5816 5816 5815 5814 5817 5818 5817 5816 5817 5814 5816 5816 5817
5749 5753 5758 5761 5764 5765 5769 5772 5774 5774 5776 5778 5782 5784 5788 5787 5787 5787 5791 5794 5794 5795 5795 5796 5798 5802 5804 5804 5805 5806 5810 5813 5813 5811 5810 5811 5817 5817 5814 5814 5813 5809 5811 5812 5812
5738 5742 5745 5749 5751 5754 5757 5762 5764 5765 5766 5769 5772 5775 5779 5778 5779 5782 5784 5786 5788 5789 5789 5790 5792 5796 5798 5799 5802 5801 5804 5807 5807 5806 5805 5806 5811 5813 5811 5809 5808 5809 5808 5808 5809
5725 5729 5733 5735 5738 5742 5748 5750 5752 5755 5756 5759 5764 5766 5770 5771 5772 5774 5776 5779 5781 5782 5782 5783 5785 5789 5792 5794 5795 5796 5796 5798 5802 5801 5798 5799 5802 5808 5806 5804 5804 5804 5804 5804 5805
5712 5717 5720 5724 5728 5732 5736 5739 5743 5745 5748 5751 5755 5758 5760 5763 5764 5765 5769 5771 5774 5775 5776 5777 5777 5781 5787 5787 5786 5785 5788 5791 5796 5796 5792 5793 5793 5797 5798 5797 5799 5800 5799 5797 5797
5699 5703 5708 5713 5719 5722 5727 5730 5735 5737 5739 5743 5745 5749 5751 5754 5756 5758 5762 5764 5767 5768 5769 5769 5770 5776 5776 5776 5777 5780 5780 5782 5787 5787 5784 5788 5787 5788 5787 5785 5790 5791 5790 5789 5788
5689 5694 5699 5704 5709 5713 5716 5721 5724 5726 5729 5734 5736 5742 5743 5745 5749 5751 5754 5756 5759 5760 5761 5763 5766 5768 5768 5769 5770 5771 5772 5774 5775 5777 5774 5778 5778 5779 5780 5779 5778 5779 5780 5779 5778
5677 5684 5689 5695 5699 5704 5708 5712 5715 5716 5719 5727 5728 5733 5733 5737 5742 5745 5746 5747 5750 5752 5754 5755 5758 5761 5761 5762 5764 5764 5764 5765 5764 5766 5767 5766 5767 5769 5770 5770 5771 5770 5769 5768 5768
5667 5673 5679 5685 5691 5696 5701 5702 5705 5709 5710 5715 5720 5719 5727 5729 5732 5737 5736 5741 5742 5745 5745 5746 5751 5751 5752 5754 5756 5754 5757 5756 5757 5756 5759 5759 5756 5760 5761 5762 5762 5761 5759 5758 5757
5655 5661 5669 5677 5682 5686 5690 5690 5697 5701 5701 5704 5709 5712 5717 5721 5725 5728 5730 5729 5735 5737 5738 5740 5741 5742 5744 5746 5745 5746 5747 5748 5747 5746 5746 5746 5747 5748 5745 5750 5748 5748 5747 5747 5745
5645 5652 5657 5665 5671 5676 5678 5682 5689 5691 5688 5692 5698 5705 5709 5713 5716 5719 5722 5723 5725 5727 5730 5731 5732 5733 5735 5735 5735 5735 5735 5735 5735 5735 5733 5736 5736 5734 5734 5733 5733 5732 5731 5730 5729
5633 5640 5647 5654 5660 5664 5667 5672 5674 5676 5680 5686 5688 5695 5700 5704 5708 5710 5712 5715 5716 5718 5720 5723 5724 5723 5724 5725 5725 5725 5725 5724 5723 5722 5723 5722 5720 5721 5720 5720 5719 5719 5716 5714 5712
5622 5628 5633 5641 5645 5651 5653 5658 5659 5670 5673 5676 5679 5683 5689 5694 5696 5699 5702 5705 5708 5709 5711 5711 5712 5713 5714 5714 5714 5713 5713 5712 5710 5709 5710 5709 5708 5711 5708 5707 5705 5703 5702 5699 5696
5610 5612 5619 5628 5632 5640 5643 5643 5651 5658 5664 5668 5670 5673 5677 5681 5685 5688 5691 5694 5696 5698 5700 5700 5701 5702 5702 5701 5702 5701 5701 5700 5697 5695 5694 5695 5696 5695 5693 5692 5694 5691 5688 5685 5680
5593 5598 5605 5615 5620 5625 5625 5632 5641 5648 5651 5657 5661 5663 5666 5671 5673 5676 5679 5681 5683 5685 5687 5688 5689 5690 5689 5689 5689 5689 5688 5686 5684 5681 5678 5681 5682 5676 5678 5681 5679 5677 5673 5669 5665
5578 5585 5596 5602 5607 5602 5609 5625 5633 5638 5640 5646 5650 5652 5655 5659 5662 5663 5665 5668 5670 5672 5673 5674 5677 5678 5676 5678 5678 5676 5673 5672 5669 5667 5665 5665 5669 5663 5665 5664 5662 5659 5655 5650 5644
5564 5570 5581 5584 5588 5590 5600 5612 5623 5626 5629 5632 5637 5640 5644 5648 5649 5650 5653 5656 5656 5658 5659 5662 5662 5663 5664 5662 5661 5660 5660 5657 5652 5654 5651 5648 5651 5649 5648 5646 5642 5638 5633 5626 5618
5550 5554 5564 5568 5572 5584 5592 5600 5609 5614 5619 5621 5626 5631 5634 5636 5637 5639 5641 5643 5644 5646 5646 5649 5649 5650 5648 5649 5648 5647 5646 5645 5642 5640 5638 5632 5639 5636 5630 5625 5618 5614 5609 5599 5592
5532 5537 5545 5550 5566 5578 5585 5591 5598 5603 5607 5612 5615 5617 5620 5621 5624 5625 5628 5631 5633 5634 5633 5635 5636 5636 5637 5635 5636 5636 5636 5633 5628 5623 5623 5618 5618 5618 5607 5600 5600 5593 5584 5577 5568
5514 5518 5537 5545 5557 5566 5575 5582 5586 5589 5595 5600 5603 5605 5608 5610 5612 5614 5617 5619 5621 5621 5620 5621 5623 5623 5623 5624 5624 5624 5623 5620 5613 5610 5603 5608 5594 5593 5586 5578 5575 5573 5563 5551 5545
5499 5514 5528 5541 5547 5554 5562 5568 5575 5578 5583 5588 5591 5593 5596 5598 5600 5601 5602 5603 5604 5605 5606 5606 5608 5610 5610 5610 5612 5613 5611 5606 5599 5595 5587 5583 5578 5569 5565 5555 5552 5548 5539 5531 5526
5489 5506 5521 5528 5540 5545 5553 5558 5564 5568 5570 5574 5577 5580 5581 5585 5585 5586 5588 5589 5590 5591 5592 5593 5593 5594 5595 5597 5598 5600 5597 5589 5583 5580 5575 5565 5561 5550 5542 5536 5533 5528 5520 5513 5507